TimeEST,TemperatureF,Dew PointF,Humidity,Sea Level PressureIn,VisibilityMPH,Wind Direction,Wind SpeedMPH,Gust SpeedMPH,PrecipitationIn,Events,Conditions,WindDirDegrees,DateUTC
12:28 AM,37.4,37.4,100,29.82,2.0,NNW,5.8,-,N/A,,Overcast,330,2013-02-24 05:28:00
12:33 AM,37.4,37.4,100,29.82,1.8,NW,6.9,-,N/A,,Overcast,320,2013-02-24 05:33:00
12:43 AM,37.4,37.4,100,29.82,2.0,NW,8.1,-,N/A,,Overcast,320,2013-02-24 05:43:00
12:53 AM,37.0,37.0,100,29.88,2.5,NW,5.8,-,N/A,,Overcast,310,2013-02-24 05:53:00
1:03 AM,37.4,37.4,100,29.83,3.0,WNW,5.8,-,N/A,,Overcast,300,2013-02-24 06:03:00
1:36 AM,37.4,37.4,100,29.84,1.8,NW,4.6,-,N/A,,Overcast,310,2013-02-24 06:36:00
1:49 AM,37.4,37.4,100,29.84,3.0,WNW,4.6,-,N/A,,Overcast,290,2013-02-24 06:49:00
1:53 AM,37.0,37.0,100,29.89,3.0,WNW,4.6,-,N/A,,Overcast,290,2013-02-24 06:53:00
2:29 AM,35.6,35.6,100,29.83,2.5,Calm,Calm,-,N/A,,Mostly Cloudy,0,2013-02-24 07:29:00
2:46 AM,37.4,35.6,93,29.81,3.0,ENE,4.6,-,N/A,,Mostly Cloudy,70,2013-02-24 07:46:00
2:53 AM,37.0,36.0,96,29.86,3.0,Calm,Calm,-,N/A,,Scattered Clouds,0,2013-02-24 07:53:00
3:07 AM,35.6,35.6,100,29.81,2.5,Calm,Calm,-,N/A,,Mostly Cloudy,0,2013-02-24 08:07:00
3:29 AM,37.4,37.4,100,29.80,1.0,Calm,Calm,-,N/A,,Mist,0,2013-02-24 08:29:00
3:34 AM,35.6,35.6,100,29.80,0.5,Calm,Calm,-,N/A,Fog,Fog,0,2013-02-24 08:34:00
3:43 AM,35.6,35.6,100,29.79,0.2,Calm,Calm,-,N/A,Fog,Fog,0,2013-02-24 08:43:00
3:53 AM,35.1,35.1,100,29.85,0.2,Calm,Calm,-,N/A,Fog,Fog,0,2013-02-24 08:53:00
4:13 AM,35.6,35.6,100,29.81,0.5,WSW,3.5,-,N/A,Fog,Fog,240,2013-02-24 09:13:00
4:21 AM,35.6,35.6,100,29.82,2.0,WSW,3.5,-,N/A,,Overcast,250,2013-02-24 09:21:00
4:25 AM,35.6,35.6,100,29.82,1.8,WSW,3.5,-,N/A,,Overcast,250,2013-02-24 09:25:00
4:42 AM,35.6,35.6,100,29.83,0.8,West,3.5,-,N/A,,Mist,260,2013-02-24 09:42:00
4:53 AM,35.1,35.1,100,29.88,1.5,Calm,Calm,-,N/A,,Overcast,0,2013-02-24 09:53:00
5:02 AM,35.6,35.6,100,29.83,0.8,Calm,Calm,-,N/A,,Mist,0,2013-02-24 10:02:00
5:18 AM,35.6,35.6,100,29.84,2.0,Calm,Calm,-,N/A,,Mostly Cloudy,0,2013-02-24 10:18:00
5:22 AM,35.6,35.6,100,29.84,3.0,Calm,Calm,-,N/A,,Mostly Cloudy,0,2013-02-24 10:22:00
5:36 AM,33.8,33.8,100,29.83,2.0,Calm,Calm,-,N/A,,Mostly Cloudy,0,2013-02-24 10:36:00
5:53 AM,35.1,35.1,100,29.88,2.5,Calm,Calm,-,N/A,,Overcast,0,2013-02-24 10:53:00
6:00 AM,35.6,35.6,100,29.84,4.0,Calm,Calm,-,N/A,,Overcast,0,2013-02-24 11:00:00
6:53 AM,34.0,33.1,96,29.88,3.0,Calm,Calm,-,N/A,,Scattered Clouds,0,2013-02-24 11:53:00
7:53 AM,35.1,33.1,92,29.90,5.0,NW,5.8,-,N/A,,Partly Cloudy,320,2013-02-24 12:53:00
8:53 AM,39.0,27.0,62,29.92,10.0,WNW,16.1,-,N/A,,Clear,300,2013-02-24 13:53:00
9:53 AM,41.0,25.0,53,29.93,10.0,NW,15.0,24.2,N/A,,Partly Cloudy,310,2013-02-24 14:53:00
10:53 AM,41.0,24.1,51,29.95,10.0,WNW,18.4,28.8,N/A,,Clear,290,2013-02-24 15:53:00
11:53 AM,43.0,24.1,47,29.94,10.0,WNW,18.4,23.0,N/A,,Scattered Clouds,290,2013-02-24 16:53:00
12:53 PM,42.1,23.0,47,29.94,10.0,NW,15.0,20.7,N/A,,Overcast,320,2013-02-24 17:53:00
1:53 PM,42.1,23.0,47,29.94,10.0,NW,21.9,26.5,N/A,,Scattered Clouds,310,2013-02-24 18:53:00
2:53 PM,39.0,25.0,57,29.97,10.0,NNW,18.4,25.3,N/A,,Overcast,330,2013-02-24 19:53:00
3:53 PM,36.0,24.1,62,30.01,9.0,NW,19.6,26.5,N/A,,Overcast,310,2013-02-24 20:53:00
4:53 PM,34.0,24.1,67,30.04,8.0,NNW,15.0,-,N/A,,Overcast,340,2013-02-24 21:53:00
5:53 PM,34.0,21.0,59,30.06,10.0,WNW,19.6,-,N/A,,Overcast,290,2013-02-24 22:53:00
6:53 PM,32.0,19.9,61,30.10,10.0,NNW,8.1,-,N/A,,Overcast,330,2013-02-24 23:53:00
7:53 PM,32.0,19.9,61,30.12,10.0,WNW,13.8,-,N/A,,Mostly Cloudy,300,2013-02-25 00:53:00
8:53 PM,30.9,19.9,64,30.14,10.0,WNW,13.8,-,N/A,,Partly Cloudy,290,2013-02-25 01:53:00
9:53 PM,28.9,19.9,69,30.14,10.0,WNW,4.6,-,N/A,,Clear,300,2013-02-25 02:53:00
10:53 PM,28.9,19.0,67,30.15,10.0,WNW,8.1,-,N/A,,Clear,290,2013-02-25 03:53:00
11:53 PM,27.0,18.0,69,30.16,10.0,WNW,4.6,-,N/A,,Clear,300,2013-02-25 04:53:00